Time,TemperatureF,DewpointF,PressureIn,WindDirection,WindDirectionDegrees,WindSpeedMPH,WindSpeedGustMPH,Humidity,HourlyPrecipIn,Conditions,Clouds,dailyrainin,SoftwareType,DateUTC
2013-02-18 00:02:00,39.0,33.0,29.88,SSE,157,7.0,11.0,78,-99.99,,,-99.99,,2013-02-18 06:02:00,
2013-02-18 00:11:00,38.0,33.0,29.88,SSE,157,7.0,10.0,80,-99.99,,,-99.99,,2013-02-18 06:11:00,
2013-02-18 00:21:00,38.0,33.0,29.87,SSE,157,8.0,11.0,81,-99.99,,,-99.99,,2013-02-18 06:21:00,
2013-02-18 00:32:00,38.0,33.0,29.87,SSE,157,7.0,11.0,81,-99.99,,,-99.99,,2013-02-18 06:32:00,
2013-02-18 00:41:00,38.0,33.0,29.86,SSE,157,7.0,9.0,83,-99.99,,,-99.99,,2013-02-18 06:41:00,
2013-02-18 00:51:00,38.0,33.0,29.86,SSE,157,8.0,12.0,81,-99.99,,,-99.99,,2013-02-18 06:51:00,
2013-02-18 01:01:00,38.0,33.0,29.86,SSE,157,7.0,11.0,81,-99.99,,,-99.99,,2013-02-18 07:01:00,
2013-02-18 01:11:00,38.0,33.0,29.86,SSE,157,7.0,9.0,82,-99.99,,,-99.99,,2013-02-18 07:11:00,
2013-02-18 01:21:00,38.0,33.0,29.86,SSE,157,7.0,10.0,83,-99.99,,,-99.99,,2013-02-18 07:21:00,
2013-02-18 01:32:00,37.0,33.0,29.85,SSE,157,6.0,8.0,84,-99.99,,,-99.99,,2013-02-18 07:32:00,
2013-02-18 01:42:00,37.0,33.0,29.85,SSE,157,6.0,11.0,85,-99.99,,,-99.99,,2013-02-18 07:42:00,
2013-02-18 01:51:00,37.0,33.0,29.85,SSE,157,5.0,8.0,86,-99.99,,,-99.99,,2013-02-18 07:51:00,
2013-02-18 02:01:00,36.0,33.0,29.85,SSE,157,5.0,7.0,87,-99.99,,,-99.99,,2013-02-18 08:01:00,
2013-02-18 02:11:00,36.0,33.0,29.84,SE,135,5.0,8.0,88,-99.99,,,-99.99,,2013-02-18 08:11:00,
2013-02-18 02:21:00,36.0,33.0,29.84,SSE,157,6.0,8.0,89,-99.99,,,-99.99,,2013-02-18 08:21:00,
2013-02-18 02:32:00,36.0,33.0,29.83,SE,135,6.0,9.0,89,-99.99,,,-99.99,,2013-02-18 08:32:00,
2013-02-18 02:42:00,36.0,33.0,29.83,SE,135,6.0,8.0,89,-99.99,,,-99.99,,2013-02-18 08:42:00,
2013-02-18 02:52:00,36.0,33.0,29.82,SE,135,8.0,10.0,88,-99.99,,,-99.99,,2013-02-18 08:52:00,
2013-02-18 03:02:00,36.0,33.0,29.82,SE,135,7.0,9.0,88,-99.99,,,-99.99,,2013-02-18 09:02:00,
2013-02-18 03:11:00,36.0,33.0,29.81,SE,135,7.0,9.0,88,-99.99,,,-99.99,,2013-02-18 09:11:00,
2013-02-18 03:22:00,36.0,33.0,29.81,SSE,157,7.0,9.0,88,-99.99,,,-99.99,,2013-02-18 09:22:00,
2013-02-18 03:31:00,37.0,33.0,29.81,SSE,157,7.0,9.0,87,-99.99,,,-99.99,,2013-02-18 09:31:00,
2013-02-18 03:41:00,37.0,33.0,29.80,SSE,157,6.0,9.0,87,-99.99,,,-99.99,,2013-02-18 09:41:00,
2013-02-18 03:51:00,36.0,33.0,29.80,SE,135,5.0,7.0,88,-99.99,,,-99.99,,2013-02-18 09:51:00,
2013-02-18 04:01:00,36.0,33.0,29.79,SE,135,6.0,9.0,89,-99.99,,,-99.99,,2013-02-18 10:01:00,
2013-02-18 04:11:00,35.0,33.0,29.79,SE,135,6.0,9.0,90,-99.99,,,-99.99,,2013-02-18 10:11:00,
2013-02-18 04:21:00,35.0,33.0,29.79,SE,135,6.0,8.0,90,-99.99,,,-99.99,,2013-02-18 10:21:00,
2013-02-18 04:31:00,35.0,33.0,29.79,SE,135,7.0,9.0,90,-99.99,,,-99.99,,2013-02-18 10:31:00,
2013-02-18 04:42:00,35.0,32.0,29.78,SE,135,6.0,8.0,90,-99.99,,,-99.99,,2013-02-18 10:42:00,
2013-02-18 04:52:00,37.0,34.0,29.78,SSE,157,7.0,11.0,89,-99.99,,,-99.99,,2013-02-18 10:52:00,
2013-02-18 05:01:00,38.0,34.0,29.78,SSE,157,8.0,11.0,85,-99.99,,,-99.99,,2013-02-18 11:01:00,
2013-02-18 05:11:00,39.0,34.0,29.77,SSE,157,9.0,12.0,84,-99.99,,,-99.99,,2013-02-18 11:11:00,
2013-02-18 05:22:00,39.0,34.0,29.77,SSE,157,9.0,11.0,83,-99.99,,,-99.99,,2013-02-18 11:22:00,
2013-02-18 05:32:00,40.0,35.0,29.77,SSE,157,9.0,12.0,82,-99.99,,,-99.99,,2013-02-18 11:32:00,
2013-02-18 05:42:00,40.0,35.0,29.76,SSE,157,8.0,11.0,81,-99.99,,,-99.99,,2013-02-18 11:42:00,
2013-02-18 05:52:00,40.0,35.0,29.76,SSE,157,9.0,12.0,81,-99.99,,,-99.99,,2013-02-18 11:52:00,
2013-02-18 06:02:00,41.0,35.0,29.75,SSE,157,10.0,13.0,81,-99.99,,,-99.99,,2013-02-18 12:02:00,
2013-02-18 06:11:00,41.0,35.0,29.75,SSE,157,9.0,13.0,80,-99.99,,,-99.99,,2013-02-18 12:11:00,
2013-02-18 06:22:00,41.0,35.0,29.75,SSE,157,10.0,13.0,79,-99.99,,,-99.99,,2013-02-18 12:22:00,
2013-02-18 06:32:00,42.0,35.0,29.74,SSE,157,10.0,14.0,79,-99.99,,,-99.99,,2013-02-18 12:32:00,
2013-02-18 06:42:00,41.0,36.0,29.74,SSE,157,10.0,13.0,79,-99.99,,,-99.99,,2013-02-18 12:42:00,
2013-02-18 06:52:00,42.0,36.0,29.74,SSE,157,10.0,13.0,78,-99.99,,,-99.99,,2013-02-18 12:52:00,
2013-02-18 07:02:00,43.0,36.0,29.74,SSE,157,11.0,17.0,75,-99.99,,,-99.99,,2013-02-18 13:02:00,
2013-02-18 07:12:00,44.0,36.0,29.73,South,180,13.0,18.0,73,-99.99,,,-99.99,,2013-02-18 13:12:00,
2013-02-18 07:22:00,45.0,37.0,29.74,South,180,12.0,17.0,74,-99.99,,,-99.99,,2013-02-18 13:22:00,
2013-02-18 07:32:00,45.0,37.0,29.73,South,180,13.0,20.0,73,-99.99,,,-99.99,,2013-02-18 13:32:00,
2013-02-18 07:42:00,46.0,37.0,29.74,South,180,11.0,16.0,73,-99.99,,,-99.99,,2013-02-18 13:42:00,
2013-02-18 07:52:00,46.0,38.0,29.73,South,180,11.0,16.0,72,-99.99,,,-99.99,,2013-02-18 13:52:00,
2013-02-18 08:02:00,47.0,38.0,29.74,South,180,12.0,17.0,72,-99.99,,,-99.99,,2013-02-18 14:02:00,
2013-02-18 08:22:00,49.0,39.0,29.74,South,180,13.0,20.0,70,-99.99,,,-99.99,,2013-02-18 14:22:00,
2013-02-18 08:32:00,49.0,40.0,29.74,South,180,15.0,25.0,69,-99.99,,,-99.99,,2013-02-18 14:32:00,
2013-02-18 08:41:00,49.0,40.0,29.74,South,180,15.0,21.0,69,-99.99,,,-99.99,,2013-02-18 14:41:00,
2013-02-18 08:53:00,50.0,40.0,29.74,South,180,15.0,19.0,69,-99.99,,,-99.99,,2013-02-18 14:53:00,
2013-02-18 09:02:00,51.0,41.0,29.74,South,180,14.0,21.0,68,-99.99,,,-99.99,,2013-02-18 15:02:00,
2013-02-18 09:11:00,52.0,41.0,29.74,South,180,15.0,20.0,67,-99.99,,,-99.99,,2013-02-18 15:11:00,
2013-02-18 09:22:00,52.0,41.0,29.74,SSW,202,13.0,19.0,67,-99.99,,,-99.99,,2013-02-18 15:22:00,
2013-02-18 09:32:00,52.0,41.0,29.74,SSW,202,15.0,23.0,67,-99.99,,,-99.99,,2013-02-18 15:32:00,
2013-02-18 09:42:00,52.0,41.0,29.74,SSW,202,15.0,22.0,68,-99.99,,,-99.99,,2013-02-18 15:42:00,
2013-02-18 09:52:00,52.0,42.0,29.73,SSW,202,14.0,20.0,68,-99.99,,,-99.99,,2013-02-18 15:52:00,
2013-02-18 10:02:00,52.0,42.0,29.73,SSW,202,16.0,22.0,68,-99.99,,,-99.99,,2013-02-18 16:02:00,
2013-02-18 10:12:00,53.0,43.0,29.73,SSW,202,18.0,26.0,68,-99.99,,,-99.99,,2013-02-18 16:12:00,
2013-02-18 10:22:00,53.0,43.0,29.73,SSW,202,17.0,25.0,68,-99.99,,,-99.99,,2013-02-18 16:22:00,
2013-02-18 10:32:00,53.0,43.0,29.72,South,180,16.0,23.0,69,-99.99,,,-99.99,,2013-02-18 16:32:00,
2013-02-18 10:42:00,52.0,43.0,29.72,South,180,15.0,25.0,70,-99.99,,,-99.99,,2013-02-18 16:42:00,
2013-02-18 10:52:00,52.0,43.0,29.71,South,180,16.0,23.0,71,-99.99,,,-99.99,,2013-02-18 16:52:00,
2013-02-18 11:03:00,52.0,43.0,29.71,South,180,15.0,23.0,71,-99.99,,,-99.99,,2013-02-18 17:03:00,
2013-02-18 11:12:00,53.0,44.0,29.71,South,180,15.0,23.0,72,-99.99,,,-99.99,,2013-02-18 17:12:00,
2013-02-18 11:22:00,53.0,44.0,29.71,South,180,15.0,26.0,72,-99.99,,,-99.99,,2013-02-18 17:22:00,
2013-02-18 11:32:00,54.0,44.0,29.71,South,180,16.0,26.0,71,-99.99,,,-99.99,,2013-02-18 17:32:00,
2013-02-18 11:42:00,54.0,44.0,29.70,South,180,17.0,23.0,71,-99.99,,,-99.99,,2013-02-18 17:42:00,
2013-02-18 11:52:00,54.0,45.0,29.70,South,180,15.0,21.0,71,-99.99,,,-99.99,,2013-02-18 17:52:00,
2013-02-18 12:02:00,54.0,45.0,29.69,South,180,15.0,21.0,71,-99.99,,,-99.99,,2013-02-18 18:02:00,
2013-02-18 12:12:00,54.0,45.0,29.68,South,180,16.0,23.0,71,-99.99,,,-99.99,,2013-02-18 18:12:00,
2013-02-18 12:22:00,55.0,46.0,29.68,South,180,15.0,22.0,71,-99.99,,,-99.99,,2013-02-18 18:22:00,
2013-02-18 12:32:00,54.0,46.0,29.67,South,180,15.0,21.0,72,-99.99,,,-99.99,,2013-02-18 18:32:00,
2013-02-18 12:42:00,55.0,46.0,29.66,South,180,14.0,18.0,72,-99.99,,,-99.99,,2013-02-18 18:42:00,
2013-02-18 12:52:00,54.0,46.0,29.66,South,180,13.0,19.0,74,-99.99,,,-99.99,,2013-02-18 18:52:00,
2013-02-18 13:02:00,54.0,47.0,29.65,South,180,15.0,24.0,75,-99.99,,,-99.99,,2013-02-18 19:02:00,
2013-02-18 13:12:00,54.0,47.0,29.65,South,180,14.0,20.0,79,-99.99,,,-99.99,,2013-02-18 19:12:00,
2013-02-18 13:22:00,53.0,48.0,29.64,South,180,16.0,23.0,84,-99.99,,,-99.99,,2013-02-18 19:22:00,
2013-02-18 13:33:00,53.0,48.0,29.62,South,180,18.0,25.0,83,-99.99,,,-99.99,,2013-02-18 19:33:00,
2013-02-18 13:42:00,53.0,48.0,29.62,South,180,15.0,22.0,85,-99.99,,,-99.99,,2013-02-18 19:42:00,
2013-02-18 13:52:00,53.0,48.0,29.62,South,180,16.0,22.0,84,-99.99,,,-99.99,,2013-02-18 19:52:00,
2013-02-18 14:02:00,53.0,49.0,29.61,South,180,15.0,22.0,85,-99.99,,,-99.99,,2013-02-18 20:02:00,
2013-02-18 14:12:00,53.0,49.0,29.60,South,180,15.0,23.0,86,-99.99,,,-99.99,,2013-02-18 20:12:00,
2013-02-18 14:22:00,53.0,49.0,29.59,South,180,18.0,27.0,86,-99.99,,,-99.99,,2013-02-18 20:22:00,
2013-02-18 14:32:00,52.0,49.0,29.59,SSE,157,14.0,21.0,88,-99.99,,,-99.99,,2013-02-18 20:32:00,
2013-02-18 14:42:00,52.0,49.0,29.58,South,180,14.0,22.0,88,-99.99,,,-99.99,,2013-02-18 20:42:00,
2013-02-18 14:52:00,52.0,49.0,29.58,South,180,14.0,20.0,90,-99.99,,,-99.99,,2013-02-18 20:52:00,
2013-02-18 15:02:00,52.0,48.0,29.57,South,180,14.0,20.0,88,-99.99,,,-99.99,,2013-02-18 21:02:00,
2013-02-18 15:12:00,52.0,48.0,29.56,South,180,14.0,22.0,87,-99.99,,,-99.99,,2013-02-18 21:12:00,
2013-02-18 15:22:00,51.0,48.0,29.56,South,180,13.0,18.0,89,-99.99,,,-99.99,,2013-02-18 21:22:00,
2013-02-18 15:32:00,51.0,48.0,29.55,South,180,15.0,23.0,89,-99.99,,,-99.99,,2013-02-18 21:32:00,
2013-02-18 15:42:00,51.0,49.0,29.54,South,180,15.0,21.0,90,-99.99,,,-99.99,,2013-02-18 21:42:00,
2013-02-18 15:52:00,51.0,49.0,29.53,South,180,17.0,24.0,92,-99.99,,,-99.99,,2013-02-18 21:52:00,
2013-02-18 16:02:00,51.0,49.0,29.52,South,180,17.0,27.0,93,-99.99,,,-99.99,,2013-02-18 22:02:00,
2013-02-18 16:12:00,51.0,49.0,29.52,South,180,18.0,24.0,92,-99.99,,,-99.99,,2013-02-18 22:12:00,
2013-02-18 16:22:00,51.0,49.0,29.54,SSW,202,16.0,23.0,93,-99.99,,,-99.99,,2013-02-18 22:22:00,
2013-02-18 16:33:00,46.0,45.0,29.58,WSW,247,18.0,28.0,96,-99.99,,,-99.99,,2013-02-18 22:33:00,
2013-02-18 16:42:00,43.0,42.0,29.60,NW,315,19.0,32.0,97,-99.99,,,-99.99,,2013-02-18 22:42:00,
2013-02-18 16:52:00,41.0,41.0,29.62,NW,315,21.0,30.0,98,-99.99,,,-99.99,,2013-02-18 22:52:00,
2013-02-18 17:02:00,40.0,39.0,29.62,NNW,337,21.0,33.0,97,-99.99,,,-99.99,,2013-02-18 23:02:00,
2013-02-18 17:12:00,40.0,39.0,29.65,NW,315,15.0,21.0,98,-99.99,,,-99.99,,2013-02-18 23:12:00,
2013-02-18 17:22:00,39.0,38.0,29.66,NW,315,18.0,25.0,96,-99.99,,,-99.99,,2013-02-18 23:22:00,
2013-02-18 17:32:00,39.0,38.0,29.67,NW,315,19.0,31.0,96,-99.99,,,-99.99,,2013-02-18 23:32:00,
2013-02-18 17:42:00,38.0,36.0,29.69,NW,315,19.0,27.0,96,-99.99,,,-99.99,,2013-02-18 23:42:00,
2013-02-18 17:52:00,37.0,36.0,29.71,NW,315,19.0,26.0,96,-99.99,,,-99.99,,2013-02-18 23:52:00,
2013-02-18 18:02:00,37.0,36.0,29.72,NNW,337,19.0,30.0,96,-99.99,,,-99.99,,2013-02-19 00:02:00,
2013-02-18 18:12:00,37.0,36.0,29.74,NW,315,16.0,25.0,96,-99.99,,,-99.99,,2013-02-19 00:12:00,
2013-02-18 18:22:00,36.0,35.0,29.75,NW,315,16.0,25.0,96,-99.99,,,-99.99,,2013-02-19 00:22:00,
2013-02-18 18:33:00,36.0,35.0,29.76,NW,315,14.0,19.0,96,-99.99,,,-99.99,,2013-02-19 00:33:00,
2013-02-18 18:42:00,36.0,35.0,29.76,NW,315,14.0,23.0,96,-99.99,,,-99.99,,2013-02-19 00:42:00,
2013-02-18 18:53:00,37.0,36.0,29.77,NW,315,11.0,17.0,96,-99.99,,,-99.99,,2013-02-19 00:53:00,
2013-02-18 19:03:00,37.0,35.0,29.78,NW,315,16.0,28.0,94,-99.99,,,-99.99,,2013-02-19 01:03:00,
2013-02-18 19:13:00,37.0,35.0,29.78,NW,315,18.0,26.0,92,-99.99,,,-99.99,,2013-02-19 01:13:00,
2013-02-18 19:23:00,36.0,34.0,29.79,NW,315,17.0,25.0,92,-99.99,,,-99.99,,2013-02-19 01:23:00,
2013-02-18 19:33:00,36.0,34.0,29.80,WNW,292,14.0,23.0,92,-99.99,,,-99.99,,2013-02-19 01:33:00,
2013-02-18 19:43:00,35.0,32.0,29.81,WNW,292,18.0,27.0,90,-99.99,,,-99.99,,2013-02-19 01:43:00,
2013-02-18 19:53:00,34.0,31.0,29.82,WNW,292,17.0,26.0,89,-99.99,,,-99.99,,2013-02-19 01:53:00,
2013-02-18 20:02:00,34.0,31.0,29.83,WNW,292,17.0,23.0,89,-99.99,,,-99.99,,2013-02-19 02:02:00,
2013-02-18 20:13:00,33.0,30.0,29.84,NW,315,19.0,30.0,86,-99.99,,,-99.99,,2013-02-19 02:13:00,
2013-02-18 20:22:00,33.0,28.0,29.85,WNW,292,19.0,29.0,83,-99.99,,,-99.99,,2013-02-19 02:22:00,
2013-02-18 20:33:00,32.0,27.0,29.86,WNW,292,17.0,25.0,82,-99.99,,,-99.99,,2013-02-19 02:33:00,
2013-02-18 20:42:00,32.0,27.0,29.87,WNW,292,16.0,23.0,81,-99.99,,,-99.99,,2013-02-19 02:42:00,
2013-02-18 20:53:00,32.0,28.0,29.88,NW,315,15.0,22.0,83,-99.99,,,-99.99,,2013-02-19 02:53:00,
2013-02-18 21:05:00,32.0,28.0,29.88,NW,315,14.0,20.0,84,-99.99,,,-99.99,,2013-02-19 03:05:00,
2013-02-18 21:13:00,32.0,27.0,29.89,NW,315,14.0,22.0,83,-99.99,,,-99.99,,2013-02-19 03:13:00,
2013-02-18 21:23:00,32.0,26.0,29.89,WNW,292,19.0,27.0,77,-99.99,,,-99.99,,2013-02-19 03:23:00,
2013-02-18 21:33:00,32.0,26.0,29.90,WNW,292,14.0,22.0,79,-99.99,,,-99.99,,2013-02-19 03:33:00,
2013-02-18 21:43:00,31.0,25.0,29.90,WNW,292,17.0,26.0,76,-99.99,,,-99.99,,2013-02-19 03:43:00,
2013-02-18 21:52:00,31.0,24.0,29.91,WNW,292,15.0,24.0,76,-99.99,,,-99.99,,2013-02-19 03:52:00,
2013-02-18 22:02:00,31.0,25.0,29.92,WNW,292,13.0,18.0,78,-99.99,,,-99.99,,2013-02-19 04:02:00,
2013-02-18 22:13:00,31.0,25.0,29.93,WNW,292,13.0,20.0,78,-99.99,,,-99.99,,2013-02-19 04:13:00,
2013-02-18 22:22:00,31.0,25.0,29.93,WNW,292,13.0,21.0,80,-99.99,,,-99.99,,2013-02-19 04:22:00,
2013-02-18 22:33:00,30.0,24.0,29.93,WNW,292,16.0,25.0,76,-99.99,,,-99.99,,2013-02-19 04:33:00,
2013-02-18 22:43:00,30.0,22.0,29.94,WNW,292,19.0,28.0,73,-99.99,,,-99.99,,2013-02-19 04:43:00,
2013-02-18 22:52:00,30.0,23.0,29.94,WNW,292,15.0,21.0,75,-99.99,,,-99.99,,2013-02-19 04:52:00,
2013-02-18 23:02:00,30.0,22.0,29.94,WNW,292,20.0,27.0,73,-99.99,,,-99.99,,2013-02-19 05:02:00,
2013-02-18 23:12:00,29.0,21.0,29.95,WNW,292,18.0,28.0,73,-99.99,,,-99.99,,2013-02-19 05:12:00,
2013-02-18 23:22:00,29.0,21.0,29.96,WNW,292,18.0,26.0,72,-99.99,,,-99.99,,2013-02-19 05:22:00,
2013-02-18 23:32:00,28.0,20.0,29.96,WNW,292,17.0,29.0,71,-99.99,,,-99.99,,2013-02-19 05:32:00,
2013-02-18 23:43:00,28.0,20.0,29.97,WNW,292,16.0,25.0,72,-99.99,,,-99.99,,2013-02-19 05:43:00,
2013-02-18 23:52:00,28.0,20.0,29.97,WNW,292,13.0,20.0,74,-99.99,,,-99.99,,2013-02-19 05:52:00,